Dewpoint
36 36 36 36 35 35 35 35 35 34 34 33 31 30 29 29 29 29 29 30 30 31 31 32 33 33 34 34 34 34 35 35 35 35 35 35 37 38 39 40 41 42 42 43 43 44 44 45 45 45 46 45 45 45 45 46 46 46 46 46 46 46 46 46 46 46 47 47 48
34 34 35 35 35 35 35 35 34 33 32 31 29 29 28 28 28 28 28 29 30 31 31 32 33 33 33 33 33 33 34 34 34 34 35 36 37 38 40 41 42 42 42 43 43 44 44 44 44 45 45 46 45 45 45 45 45 45 45 45 45 46 46 46 46 46 46 46 47
33 34 35 36 36 35 34 32 31 29 28 28 28 28 28 28 28 28 28 29 30 31 31 31 33 33 33 33 33 34 34 34 34 34 35 36 37 39 40 41 41 42 42 42 42 43 43 43 43 44 45 45 45 44 45 45 45 45 44 44 45 45 46 46 46 46 46 46 46
33 34 35 35 33 32 31 29 28 27 27 27 28 29 28 28 28 28 28 29 30 30 30 31 34 35 35 34 34 33 33 34 34 34 35 37 38 39 40 40 40 41 41 41 41 42 42 42 43 43 43 43 43 44 44 45 45 45 45 45 45 45 45 45 45 45 45 45 46
32 33 33 33 32 30 29 29 28 26 26 28 28 27 27 28 28 28 28 29 28 28 28 30 34 36 36 34 33 33 33 33 33 34 36 37 38 39 39 39 39 39 39 39 40 40 40 40 42 42 42 43 44 44 44 44 44 45 45 46 45 45 45 46 45 45 45 45 45
30 31 32 33 32 31 29 29 28 27 27 29 27 26 26 26 26 26 26 27 27 27 28 31 33 33 33 32 32 32 32 32 33 34 36 37 37 37 37 37 37 37 38 38 38 38 39 39 39 39 40 40 41 42 43 43 44 44 45 45 45 45 45 45 45 45 45 45 45
26 27 28 29 29 29 29 29 29 29 28 28 26 25 25 26 26 26 26 27 27 27 28 30 31 31 31 31 31 31 31 32 33 34 35 36 36 36 36 36 36 37 37 37 37 37 37 38 38 38 39 40 40 41 42 43 44 44 44 45 45 45 44 44 45 45 44 44 44
19 20 20 21 22 24 25 26 27 26 25 25 24 24 24 26 27 27 26 26 26 27 28 29 29 30 30 31 32 32 32 32 33 33 34 35 35 35 35 35 35 35 35 36 36 36 36 37 36 37 38 38 39 40 41 41 42 43 44 44 45 44 44 45 44 44 44 43 43
16 17 17 17 17 18 19 20 22 23 23 23 23 24 24 25 26 26 25 25 25 26 27 27 27 28 28 29 31 32 33 33 33 33 34 34 34 34 34 34 34 34 34 34 35 35 35 35 36 36 36 36 37 37 39 40 41 42 42 43 44 44 44 44 44 44 44 44 44
16 16 16 16 18 19 19 19 21 22 22 22 22 23 24 24 24 24 24 24 24 24 24 25 25 26 27 28 29 31 32 33 33 33 33 33 33 33 33 33 32 32 32 32 33 33 34 34 35 35 36 36 37 37 38 38 39 40 41 42 42 42 43 43 43 43 43 43 43
16 16 16 17 18 19 19 19 20 20 21 21 20 21 22 22 22 22 23 24 24 24 24 24 25 27 28 29 31 32 33 33 31 31 31 31 31 31 31 31 30 30 30 30 31 32 32 33 33 34 35 35 36 36 37 37 38 38 39 40 40 41 42 42 43 43 43 43 43
17 17 17 18 18 18 19 19 19 19 19 19 18 18 19 19 20 20 20 21 22 22 23 24 25 26 27 28 29 30 30 31 30 30 29 29 30 30 30 30 30 30 30 30 30 31 31 31 32 32 33 33 34 35 36 36 37 37 38 38 39 39 40 41 42 43 43 43 43
18 18 18 19 19 19 19 19 18 18 17 17 16 16 16 18 18 19 19 19 20 21 23 24 24 25 26 27 28 28 28 28 28 28 28 28 29 29 29 29 29 30 30 31 31 31 31 31 31 31 32 32 33 33 34 35 36 36 37 37 37 38 39 40 41 42 42 43 43
19 19 19 19 19 19 19 18 17 17 16 16 16 16 16 17 18 18 19 19 20 21 23 24 24 24 25 26 26 26 27 27 27 27 27 28 28 29 29 29 29 30 30 31 31 31 31 31 31 31 31 31 32 32 33 34 34 35 35 36 37 37 38 39 40 41 42 42 42
20 20 20 20 20 19 19 18 18 17 17 17 17 17 18 18 18 19 20 20 21 22 23 24 24 25 26 26 26 26 26 26 26 26 27 27 28 28 28 28 28 29 30 31 31 31 31 31 31 31 32 32 32 32 32 33 33 33 34 35 35 36 37 38 39 41 42 42 42
22 23 23 22 22 22 21 20 20 20 19 19 19 19 19 19 20 21 22 23 23 24 24 25 25 26 27 27 27 27 27 27 27 27 27 27 27 27 28 28 28 28 29 30 31 31 32 32 32 32 32 32 32 32 32 32 32 32 33 33 34 35 36 37 38 40 41 42 42
24 24 24 24 24 24 23 23 22 22 21 20 20 20 20 21 22 23 23 24 24 24 25 25 26 26 26 27 27 28 28 28 28 28 27 27 27 27 28 28 28 28 29 29 30 31 31 32 32 32 32 32 32 32 32 32 32 32 32 33 33 33 34 35 36 37 40 42 42
23 23 23 23 23 23 22 22 21 21 20 20 20 21 22 23 23 24 24 24 25 25 25 26 27 27 27 27 28 28 28 28 28 28 28 28 28 28 28 28 28 29 29 30 30 31 31 32 32 32 33 33 33 33 33 33 32 32 32 32 32 33 33 33 34 36 38 41 42
21 21 21 21 21 20 20 20 19 19 19 20 22 23 24 24 25 25 26 26 26 26 26 27 27 27 28 28 28 28 28 29 29 29 29 28 28 28 28 29 29 29 30 30 31 32 32 32 33 33 33 33 33 33 33 33 32 32 32 32 32 32 33 33 33 35 37 39 41
18 19 19 19 19 19 19 19 19 19 20 22 23 24 25 26 27 27 27 27 27 27 27 27 27 27 28 28 29 29 29 29 30 30 30 30 30 30 29 29 30 30 31 31 32 32 33 33 33 33 33 33 33 33 33 33 33 32 32 32 32 32 32 33 33 34 36 38 40
17 17 18 18 18 19 19 19 20 20 21 22 23 24 26 27 28 28 28 28 28 28 29 29 28 28 28 28 29 29 30 30 30 30 30 31 31 31 31 30 30 31 31 32 32 33 33 33 33 33 33 33 33 33 33 33 32 32 32 32 33 33 33 33 33 34 36 37 39
17 18 18 18 19 19 19 20 21 22 22 23 24 24 25 27 28 28 29 30 30 31 31 31 31 30 30 30 30 31 31 31 32 32 32 32 31 31 31 31 32 33 33 33 33 33 33 33 33 33 33 33 33 33 32 32 32 32 32 32 33 33 33 34 34 35 36 37 38
18 18 18 18 18 19 19 20 22 23 23 24 24 24 25 26 27 28 30 31 32 32 32 32 32 32 33 33 33 33 33 33 34 34 33 33 33 33 33 33 33 34 33 33 33 33 33 33 33 33 33 33 32 32 32 32 32 32 32 32 33 33 33 34 35 36 37 38 39
18 18 18 18 18 18 19 19 20 21 22 23 24 24 25 26 28 29 31 31 32 32 32 33 33 33 33 33 34 34 34 34 34 34 34 34 34 34 34 34 34 34 34 34 35 35 35 34 34 33 33 32 32 32 31 31 32 32 32 32 32 33 33 33 34 35 36 37 40
18 18 18 18 18 18 19 19 19 19 20 21 21 23 24 25 27 29 30 31 31 31 31 32 32 33 33 33 33 33 33 33 33 34 34 34 34 34 34 34 34 34 35 36 36 35 35 35 34 33 33 32 32 33 33 33 34 34 33 33 33 33 33 33 33 34 34 36 38
17 18 18 18 18 18 19 19 19 19 19 20 20 21 22 24 26 28 29 29 30 30 30 31 31 31 32 32 32 32 32 33 33 33 33 33 34 34 34 34 34 35 36 35 35 35 35 35 34 33 33 32 32 32 33 33 35 35 36 35 34 34 33 33 34 34 34 35 37
18 18 18 18 18 19 19 19 19 19 19 19 20 20 21 23 24 26 28 28 29 29 29 30 30 30 30 30 30 30 31 31 31 32 32 33 33 33 33 33 34 35 36 35 35 34 34 34 34 34 34 34 33 33 33 34 35 36 36 36 35 35 34 35 35 35 35 35 36
18 18 18 18 19 19 19 19 19 19 19 19 19 20 21 23 24 25 26 27 28 28 28 28 29 29 28 28 28 29 29 29 30 30 31 31 32 32 32 32 33 34 34 34 33 33 34 34 34 34 34 35 35 36 36 36 35 35 36 37 36 36 37 37 37 37 37 37 37
18 18 18 18 19 19 19 19 19 19 19 19 20 21 22 23 23 24 25 27 27 27 26 26 27 27 27 27 27 28 28 28 29 29 29 29 30 30 30 30 30 31 32 32 33 33 33 33 34 34 34 34 35 36 36 36 36 35 35 36 36 36 37 37 38 38 39 39 39
18 18 18 18 19 19 19 19 19 19 19 20 21 22 22 23 23 24 24 25 25 25 25 25 25 26 26 26 26 26 27 27 27 28 28 28 28 29 29 29 29 30 31 31 32 32 33 33 33 33 33 34 35 35 35 35 35 36 36 35 35 36 36 36 36 37 38 39 40
18 18 18 19 19 19 19 19 19 19 20 21 21 22 22 22 22 23 23 24 24 24 24 24 24 24 25 25 25 25 25 25 26 27 27 28 28 28 28 28 28 29 30 31 31 32 32 33 33 33 33 33 34 34 34 34 35 35 35 35 35 35 35 35 35 36 37 38 39
19 19 19 19 19 20 20 19 20 20 20 21 21 21 22 22 22 22 23 23 24 24 24 23 24 24 24 24 24 24 24 25 26 26 27 28 28 28 28 28 28 29 29 30 30 31 31 32 32 32 32 32 32 33 34 34 34 34 35 35 35 35 35 34 35 35 36 37 38
19 19 19 19 19 20 20 20 21 21 21 21 21 21 21 21 22 23 23 23 23 24 24 23 24 24 24 24 24 24 24 25 26 26 27 27 27 27 28 28 28 29 29 30 30 31 31 31 32 32 32 32 32 33 33 34 34 34 35 35 35 35 35 35 35 36 36 37 38
22 21 19 19 20 20 21 21 22 23 23 23 22 22 21 21 22 22 23 23 23 23 23 23 23 24 24 24 24 24 25 26 27 27 27 27 27 27 27 28 29 30 30 30 31 31 32 32 32 32 32 32 33 33 33 34 34 35 35 35 35 35 35 35 35 35 36 37 38
20 20 20 20 21 21 22 23 23 24 24 24 23 23 22 22 22 22 23 23 23 23 23 23 23 23 24 24 24 25 25 26 27 27 27 27 27 27 27 28 28 29 29 30 30 31 32 32 33 33 33 33 34 35 35 35 35 35 35 35 35 35 35 35 35 36 36 37 38
19 20 22 22 21 21 22 23 24 24 24 24 24 24 23 23 22 22 22 22 22 22 22 22 22 23 23 23 24 25 25 26 26 27 27 27 27 27 27 27 27 28 29 29 30 30 31 32 32 33 33 34 34 35 35 35 35 35 35 35 35 35 35 35 35 36 37 37 38
19 21 22 22 20 20 21 22 23 23 24 24 23 23 23 22 22 21 21 21 21 21 21 22 22 22 23 23 24 24 24 24 25 26 26 27 27 27 27 26 27 27 28 29 29 30 30 31 31 31 32 33 34 34 34 34 34 34 34 34 34 34 35 35 35 36 37 37 37
18 19 21 21 20 19 20 20 22 23 23 23 22 22 21 21 20 20 21 21 21 21 21 21 22 22 23 23 24 24 24 25 25 26 26 27 27 27 27 26 27 27 28 29 29 30 30 31 31 31 32 33 33 33 33 33 33 34 34 34 34 34 34 35 36 36 37 37 37
17 18 18 18 19 19 19 19 20 21 22 21 20 20 19 20 20 20 20 21 21 21 21 22 22 23 23 24 24 24 25 25 25 26 26 27 27 27 27 27 27 28 28 29 30 30 31 31 32 32 33 33 33 33 33 33 33 33 33 33 34 34 35 35 36 37 37 37 37
17 17 18 18 19 19 19 18 19 19 20 19 19 18 18 19 20 20 20 21 21 21 22 22 22 23 23 24 24 24 24 25 25 26 27 27 28 28 28 28 28 28 28 29 30 31 31 32 32 33 33 33 33 33 33 33 33 33 33 33 33 34 34 35 36 36 37 37 37
17 18 18 18 18 18 18 18 18 18 18 18 18 18 19 19 20 20 21 21 21 22 22 22 23 23 23 24 24 24 24 25 25 26 27 27 28 28 28 28 28 28 28 29 30 31 31 32 32 33 33 33 33 33 33 33 33 32 32 33 33 33 33 34 34 35 35 36 36